Location: Pasadena, ca
(34.1243°N, 118.1037°W)
Time: 11:17:19
(UTC-08:00)

XW-2C - Visible Passes

Search period start: 16 December 2018 00:00
Search period end: 26 December 2018 00:00
Orbit: 508 x 531 km, 97.5° (Epoch: 16 December)

Date Brightness Start Highest point End Pass type
(mag) Time Alt. Az. Time Alt. Az. Time Alt. Az.
16 Dec ? 04:49:46 10° ENE 04:51:13 12° E 04:52:40 10° ESE visible
16 Dec ? 06:22:04 10° N 06:25:26 33° WNW 06:28:48 10° SW visible
17 Dec ? 06:08:14 10° N 06:11:52 51° WNW 06:15:29 10° SSW visible
17 Dec ? 18:22:07 10° WSW 18:22:57 11° W 18:23:46 10° W visible
18 Dec ? 05:54:32 10° N 05:58:16 82° WNW 06:02:00 10° SSW visible
18 Dec ? 18:06:50 10° SW 18:09:14 16° W 18:11:37 10° NW visible
19 Dec ? 05:40:57 10° NNE 05:44:39 63° E 05:48:21 10° S visible
19 Dec ? 17:52:27 10° SSW 17:55:32 24° W 17:58:37 10° NW visible
20 Dec ? 05:27:28 10° NNE 05:31:01 39° E 05:34:32 10° S visible
20 Dec ? 17:38:23 10° SSW 17:41:52 36° W 17:45:21 10° NNW visible
21 Dec ? 05:14:10 10° NE 05:17:20 26° E 05:20:31 10° SSE visible
21 Dec ? 17:24:32 10° S 17:28:13 57° W 17:31:55 10° NNW visible
22 Dec ? 05:01:05 10° NE 05:03:39 17° E 05:06:12 10° SE visible
22 Dec ? 17:10:51 10° SSE 17:14:35 90° SSE 17:18:20 10° NNW visible
23 Dec ? 04:48:36 10° ENE 04:49:55 12° E 04:51:16 10° ESE visible
23 Dec ? 06:20:45 10° N 06:24:09 34° WNW 06:27:34 10° SW visible
24 Dec ? 06:06:55 10° N 06:10:34 53° WNW 06:14:14 10° SSW visible
24 Dec ? 18:20:38 10° WSW 18:21:39 11° W 18:22:39 10° WNW visible
25 Dec ? 05:53:12 10° N 05:56:58 85° W 06:00:43 10° SSW visible
25 Dec ? 18:05:29 10° SW 18:07:55 16° W 18:10:21 10° NW visible
